Home   Weather   Traun   Past weeks

Flag for Austria Past Weather in Traun, Upper Austria, Austria — Yesterday and Last 2 Weeks

Now
27 °F

Snow flurries. Partly sunny.


Feels Like: 19 °F
Forecast: 15 / 25 °F
Wind: 7 mph from Northeast

Location: Linz / Hoersching-Flughafen

Current Time: Jan 17, 2017 at 10:01:19 am

Latest Report: Jan 17, 2017 at 9:20 am


Visibility: N/A

Pressure: 30.42 "Hg

Humidity: 74%

Dew Point: 19 °F

Location of TraunLocation

Past Weather in Traun — Graph

°F

Traun Temperature Yesterday

Maximum temperature yesterday: 28 °F (at 12:50 pm)
Minimum temperature yesterday: 21 °F (at 7:50 am)
Average temperature yesterday: 26 °F

High & Low Weather Summary for the Past Weeks

 TemperatureHumidityPressure
High39 °F (Jan 12, 11:50 am)100% (Jan 2, 8:20 am)30.66 "Hg (Jan 2, 8:20 am)
Low3 °F (Jan 7, 6:50 am)52% (Jan 13, 12:50 pm)29.39 "Hg (Jan 13, 3:50 am)
Average26 °F83%30.10 "Hg
* Reported Jan 2 8:20 am — Jan 17 8:50 am, Traun, Weather by CustomWeather, © 2017

Note: Actual official high and low records may vary slightly from our data, if they occured in-between our weather recording intervals... More about our weather records

Advertising

Traun Weather History for the Previous 24 Hours

Scroll right to see more
 ConditionsComfort  
Time TempWeatherWind HumidityBarometerVisibility
8:50 am
Tue, Jan 17
25 °FPartly sunny.8 mph80%30.39 "HgN/A
8:20 am27 °FBroken clouds.9 mph74%30.39 "HgN/A
7:50 am27 °FSnow flurries. Overcast.6 mph80%30.39 "HgN/A
7:20 am27 °FLight snow. Partly cloudy.6 mph86%30.36 "HgN/A
6:50 am27 °FLight snow. Partly cloudy.2 mph86%30.36 "Hg6 mi
6:20 am27 °FLight mixture of precip. Partly cloudy.3 mph93%30.33 "Hg2 mi
5:50 am25 °FLight mixture of precip. Partly cloudy.6 mph100%30.33 "Hg3 mi
5:20 am25 °FLight mixture of precip. Partly cloudy.3 mph93%30.33 "Hg2 mi
4:50 am25 °FLight mixture of precip. Passing clouds.2 mph93%30.30 "Hg2 mi
4:20 am25 °FLight mixture of precip. Passing clouds.2 mph93%30.30 "Hg2 mi
3:50 am25 °FLight snow. Passing clouds.2 mph93%30.30 "Hg2 mi
3:20 am25 °FLight mixture of precip. Partly cloudy.1 mph93%30.30 "Hg1 mi
2:50 am25 °FLight snow. Passing clouds.2 mph100%30.30 "Hg2 mi
2:20 am25 °FSnow. Passing clouds.2 mph100%30.30 "Hg2 mi
1:50 am25 °FSnow. Passing clouds.1 mph100%30.30 "Hg2 mi
1:20 am25 °FSnow. Partly cloudy.1 mph100%30.30 "Hg1 mi
12:50 am27 °FSnow. Partly cloudy.2 mph93%30.30 "Hg1 mi
12:20 am25 °FSnow. Passing clouds.1 mph100%30.27 "Hg2 mi
11:50 pm
Mon, Jan 16
27 °FSnow flurries. Passing clouds.2 mph86%30.27 "Hg2 mi
11:20 pm25 °FSnow flurries. Partly cloudy.2 mph93%30.27 "Hg5 mi
10:50 pm25 °FSnow flurries. Partly cloudy.1 mph93%30.27 "Hg5 mi
10:20 pm25 °FPartly cloudy.2 mph93%30.27 "Hg5 mi
9:50 pm25 °FPassing clouds.5 mph93%30.24 "HgN/A
9:20 pm27 °FSnow flurries. Passing clouds.3 mph86%30.24 "Hg5 mi
8:50 pm27 °FSnow flurries. Overcast.3 mph86%30.24 "HgN/A
8:20 pm27 °FLight snow. Partly cloudy.3 mph86%30.24 "Hg6 mi
7:50 pm27 °FPassing clouds.2 mph86%30.24 "HgN/A
7:20 pm27 °FPartly cloudy.3 mph86%30.21 "HgN/A
6:50 pm27 °FPassing clouds.5 mph86%30.21 "HgN/A
6:20 pm27 °FPartly cloudy.3 mph86%30.21 "HgN/A
5:50 pm27 °FPassing clouds.2 mph86%30.18 "HgN/A
5:20 pm27 °FPassing clouds.2 mph86%30.18 "HgN/A
4:50 pm25 °FPartly cloudy.1 mph86%30.18 "HgN/A
4:20 pm27 °FScattered clouds.3 mph86%30.18 "HgN/A
3:50 pm28 °FPartly sunny.2 mph80%30.18 "HgN/A
3:20 pm28 °FPartly sunny.2 mph80%30.15 "HgN/A
2:50 pm28 °FLight snow. Broken clouds.3 mph80%30.15 "HgN/A
2:20 pm28 °FLight snow. Broken clouds.2 mph80%30.15 "Hg5 mi
1:50 pm28 °FLight snow. Broken clouds.3 mph80%30.15 "Hg5 mi
1:20 pm28 °FBroken clouds.5 mph86%30.15 "Hg5 mi
12:50 pm28 °FBroken clouds.5 mph86%30.15 "Hg5 mi
12:20 pm27 °FLight snow. Broken clouds.2 mph93%30.15 "Hg5 mi
11:50 am27 °FBroken clouds.3 mph86%30.15 "Hg5 mi
11:20 am27 °FScattered clouds.5 mph86%30.15 "Hg5 mi
10:50 am25 °FScattered clouds.2 mph93%30.15 "Hg5 mi
10:20 am25 °FBroken clouds.2 mph93%30.15 "Hg4 mi
Weather by CustomWeather, © 2017

See weather overviewHow to use our weather pages